This is the latest recevied weather packets stored in our database for station/object WW5AH-9. If no packets are shown the sender has not sent any weather packets the latest 1 day(s).
| Time | Temp. | Humidity | Pressure | Rain* | Wind** | Luminosity | Snow |
|---|---|---|---|---|---|---|---|
| 1778009074 | 28.33° C | 68% | 1005.1 hPa | 0 mm | 0.89 m/s, 180° | 669 W/m² | - |
| 1778008771 | 27.78° C | 69% | 1005.1 hPa | 0 mm | 0.45 m/s, 193° | 716 W/m² | - |
| 1778008470 | 28.33° C | 70% | 1005.3 hPa | 0 mm | 2.68 m/s, 244° | 319 W/m² | - |
| 1778008166 | 27.78° C | 70% | 1005.1 hPa | 0 mm | 0.89 m/s, 93° | 309 W/m² | - |
| 1778007861 | 27.22° C | 71% | 1004.9 hPa | 0 mm | 0.89 m/s, 125° | 347 W/m² | - |
| 1778007556 | 26.67° C | 72% | 1005 hPa | 0 mm | 0.89 m/s, 250° | 305 W/m² | - |
| 1778007254 | 26.67° C | 72% | 1004.7 hPa | 0 mm | 1.79 m/s, 201° | 292 W/m² | - |
| 1778006950 | 26.67° C | 71% | 1004.6 hPa | 0 mm | 2.24 m/s, 194° | 288 W/m² | - |
| 1778006647 | 26.67° C | 72% | 1004.6 hPa | 0 mm | 0 m/s | 307 W/m² | - |
| 1778006344 | 26.67° C | 72% | 1004.9 hPa | 0 mm | 1.79 m/s, 209° | 309 W/m² | - |
| 1778006041 | 26.67° C | 71% | 1004.1 hPa | 0 mm | 2.24 m/s, 153° | 320 W/m² | - |
| 1778005737 | 27.22° C | 72% | 1004.2 hPa | 0 mm | 2.24 m/s, 138° | 689 W/m² | - |
| 1778005434 | 26.67° C | 73% | 1004.1 hPa | 0 mm | 4.47 m/s, 155° | 542 W/m² | - |
| 1778005131 | 26.11° C | 75% | 1004.1 hPa | 0 mm | 0.45 m/s, 141° | 370 W/m² | - |
| 1778004828 | 25.56° C | 76% | 1003.5 hPa | 0 mm | 1.34 m/s, 202° | 521 W/m² | - |
| 1778004525 | 25.56° C | 76% | 1003.9 hPa | 0 mm | 3.13 m/s, 142° | 369 W/m² | - |
| 1778004221 | 25.56° C | 75% | 1004.6 hPa | 0 mm | 1.79 m/s, 196° | 282 W/m² | - |
| 1778003918 | 25.56° C | 75% | 1005.8 hPa | 0 mm | 3.58 m/s, 140° | 266 W/m² | - |
| 1778003614 | 25.56° C | 76% | 1005.9 hPa | 0 mm | 0 m/s | 374 W/m² | - |
| 1778003311 | 25° C | 77% | 1005.9 hPa | 0 mm | 0.45 m/s, 164° | 315 W/m² | - |
| 1778003009 | 25° C | 77% | 1006 hPa | 0 mm | 1.79 m/s, 178° | 183 W/m² | - |
| 1778002704 | 25° C | 77% | 1005.6 hPa | 0 mm | 1.79 m/s, 171° | 258 W/m² | - |
| 1778002401 | 25° C | 77% | 1005.2 hPa | 0 mm | 1.79 m/s, 207° | 240 W/m² | - |
| 1778002099 | 25° C | 78% | 1005.2 hPa | 0 mm | 2.24 m/s, 193° | 522 W/m² | - |
| 1778001796 | 24.44° C | 79% | 1005.3 hPa | 0 mm | 1.34 m/s, 152° | 314 W/m² | - |
* Rain latest hour (hover to see other rain measurements)
** Current wind speed in m/s (hover to see current wind gust speed)